Radiation Dose at Monitoring Post of Fukushima Daini Nuclear Power Station
Date,Time,MP-1(microSv/h),MP-2(microSv/h),MP-3(microSv/h),MP-4(microSv/h),MP-5(microSv/h),MP-6(microSv/h),MP-7(microSv/h),Wind Direction,Wind Velocity(m/s),Rain
2017/06/21,00:00,0.354,0.220,0.365,0.339,0.324,0.178,0.109,south-southwest,8.3,No
2017/06/21,00:10,0.353,0.219,0.360,0.338,0.326,0.179,0.109,south-southwest,6.8,No
2017/06/21,00:20,0.353,0.220,0.365,0.337,0.324,0.178,0.109,south-southwest,6.5,No
2017/06/21,00:30,0.355,0.219,0.362,0.339,0.325,0.179,0.109,south-southwest,5.9,No
2017/06/21,00:40,0.352,0.220,0.364,0.336,0.324,0.179,0.110,south-southwest,5.2,No
2017/06/21,00:50,0.355,0.219,0.363,0.339,0.326,0.178,0.109,south,4.8,No
2017/06/21,01:00,0.353,0.220,0.363,0.336,0.326,0.179,0.109,south,4.2,No
2017/06/21,01:10,0.356,0.219,0.365,0.340,0.325,0.178,0.110,south-southwest,3.3,No
2017/06/21,01:20,0.354,0.221,0.362,0.339,0.328,0.178,0.110,south,4.5,No
2017/06/21,01:30,0.355,0.220,0.365,0.338,0.324,0.178,0.109,south,5.3,No
2017/06/21,01:40,0.356,0.222,0.362,0.339,0.326,0.178,0.110,south,6.4,No
2017/06/21,01:50,0.354,0.220,0.364,0.338,0.326,0.178,0.110,south,5.9,No
2017/06/21,02:00,0.358,0.221,0.362,0.341,0.325,0.178,0.110,south,4.5,No
2017/06/21,02:10,0.354,0.221,0.366,0.338,0.328,0.180,0.111,south-southwest,3.6,No
2017/06/21,02:20,0.357,0.222,0.363,0.340,0.325,0.178,0.110,south-southwest,2.7,No
2017/06/21,02:30,0.354,0.221,0.364,0.337,0.328,0.181,0.111,south-southwest,2.7,No
2017/06/21,02:40,0.355,0.222,0.364,0.341,0.323,0.178,0.110,south-southwest,3.1,No
2017/06/21,02:50,0.356,0.219,0.362,0.340,0.326,0.180,0.111,south-southwest,2.7,No
2017/06/21,03:00,0.354,0.221,0.365,0.338,0.326,0.180,0.110,southwest,1.5,No
2017/06/21,03:10,0.356,0.221,0.361,0.341,0.325,0.179,0.110,west-southwest,0.5,No
2017/06/21,03:20,0.354,0.219,0.364,0.338,0.328,0.180,0.111,-,CALM,No
2017/06/21,03:30,0.357,0.221,0.361,0.341,0.325,0.180,0.110,-,CALM,No
2017/06/21,03:40,0.354,0.221,0.364,0.337,0.329,0.180,0.112,south-southeast,0.9,No
2017/06/21,03:50,0.356,0.221,0.364,0.342,0.326,0.179,0.110,south-southeast,2.1,No
2017/06/21,04:00,0.356,0.220,0.363,0.339,0.326,0.178,0.111,south,1.9,No
2017/06/21,04:10,0.353,0.221,0.365,0.339,0.329,0.180,0.111,south,2.5,No
2017/06/21,04:20,0.357,0.220,0.360,0.340,0.324,0.179,0.111,south,2.8,No
2017/06/21,04:30,0.354,0.221,0.365,0.340,0.328,0.180,0.111,south,3.9,No
2017/06/21,04:40,0.357,0.221,0.363,0.341,0.325,0.180,0.110,south,4.5,No
2017/06/21,04:50,0.355,0.221,0.364,0.339,0.325,0.179,0.111,south,5.0,No
2017/06/21,05:00,0.354,0.222,0.363,0.341,0.327,0.180,0.111,south,4.9,No
2017/06/21,05:10,0.355,0.221,0.362,0.338,0.323,0.178,0.112,south,4.0,No
2017/06/21,05:20,0.355,0.223,0.364,0.340,0.327,0.179,0.111,south,4.8,No
2017/06/21,05:30,0.357,0.220,0.362,0.339,0.323,0.179,0.111,south,5.1,No
2017/06/21,05:40,0.352,0.222,0.365,0.338,0.328,0.180,0.111,south,6.2,No
2017/06/21,05:50,0.357,0.221,0.362,0.341,0.325,0.180,0.111,south,6.5,No
2017/06/21,06:00,0.355,0.222,0.365,0.337,0.325,0.178,0.110,south,7.1,No
2017/06/21,06:10,0.356,0.221,0.362,0.339,0.326,0.179,0.110,south,6.6,No
2017/06/21,06:20,0.356,0.221,0.362,0.338,0.323,0.179,0.111,south,7.8,No
2017/06/21,06:30,0.353,0.221,0.363,0.340,0.329,0.179,0.110,south,8.2,No
2017/06/21,06:40,0.357,0.222,0.362,0.339,0.323,0.180,0.110,south,8.3,No
2017/06/21,06:50,0.354,0.221,0.365,0.336,0.323,0.178,0.109,south,8.4,No
2017/06/21,07:00,0.358,0.220,0.361,0.341,0.325,0.179,0.110,south,8.4,No
2017/06/21,07:10,0.354,0.220,0.363,0.337,0.323,0.180,0.111,south,8.2,No
2017/06/21,07:20,0.355,0.219,0.362,0.339,0.327,0.179,0.110,south,8.4,No
2017/06/21,07:30,0.354,0.221,0.361,0.339,0.324,0.179,0.110,south-southwest,9.2,No
2017/06/21,07:40,0.350,0.219,0.363,0.336,0.324,0.177,0.110,south-southwest,8.8,No
2017/06/21,07:50,0.356,0.219,0.358,0.340,0.326,0.178,0.110,south,9.2,No
2017/06/21,08:00,0.352,0.220,0.363,0.336,0.322,0.178,0.110,south,8.1,No
2017/06/21,08:10,0.353,0.218,0.363,0.339,0.326,0.177,0.109,south,9.5,No
2017/06/21,08:20,0.356,0.221,0.360,0.338,0.327,0.179,0.110,south,8.6,Yes
2017/06/21,08:30,0.352,0.220,0.366,0.336,0.323,0.178,0.108,south-southwest,7.9,Yes
2017/06/21,08:40,0.354,0.219,0.360,0.339,0.327,0.178,0.110,south-southwest,7.8,Yes
2017/06/21,08:50,0.354,0.221,0.362,0.337,0.323,0.180,0.110,south-southwest,10.1,Yes
2017/06/21,09:00,0.352,0.219,0.363,0.339,0.326,0.179,0.110,south-southwest,10.8,Yes
2017/06/21,09:10,0.357,0.220,0.361,0.339,0.327,0.180,0.111,south-southwest,10.1,Yes
2017/06/21,09:20,0.352,0.220,0.362,0.337,0.325,0.180,0.111,south-southwest,9.9,Yes
2017/06/21,09:30,0.355,0.220,0.362,0.340,0.325,0.178,0.111,south-southwest,9.2,Yes
2017/06/21,09:40,0.351,0.220,0.364,0.336,0.322,0.180,0.110,south-southwest,8.8,Yes
2017/06/21,09:50,0.351,0.220,0.359,0.340,0.327,0.179,0.111,south-southwest,7.5,Yes
2017/06/21,10:00,0.353,0.221,0.364,0.336,0.321,0.180,0.110,south-southwest,8.5,Yes
2017/06/21,10:10,0.350,0.219,0.360,0.339,0.323,0.179,0.110,south-southwest,8.7,Yes
2017/06/21,10:20,0.354,0.220,0.362,0.336,0.323,0.179,0.110,south-southwest,8.7,Yes
2017/06/21,10:30,0.351,0.221,0.359,0.337,0.323,0.179,0.111,south-southwest,6.4,Yes
2017/06/21,10:40,0.355,0.222,0.362,0.338,0.327,0.179,0.112,south,7.8,Yes
2017/06/21,10:50,0.352,0.221,0.361,0.337,0.324,0.181,0.111,south,8.6,Yes
2017/06/21,11:00,0.352,0.222,0.362,0.339,0.328,0.180,0.112,south,7.8,Yes
2017/06/21,11:10,0.353,0.221,0.361,0.336,0.323,0.180,0.113,south,9.4,Yes
2017/06/21,11:20,0.351,0.223,0.361,0.339,0.326,0.181,0.113,south,9.5,Yes
2017/06/21,11:30,0.354,0.222,0.361,0.336,0.325,0.182,0.113,south,11.3,Yes
2017/06/21,11:40,0.352,0.223,0.360,0.341,0.326,0.182,0.113,south,10.5,Yes
2017/06/21,11:50,0.354,0.224,0.360,0.337,0.325,0.182,0.114,south,11.1,Yes
2017/06/21,12:00,0.351,0.223,0.358,0.336,0.322,0.183,0.113,south,12.7,Yes
2017/06/21,12:10,0.352,0.223,0.360,0.334,0.327,0.182,0.116,south,14.9,Yes
2017/06/21,12:20,0.351,0.221,0.354,0.336,0.323,0.181,0.114,south,11.1,Yes
2017/06/21,12:30,0.349,0.222,0.358,0.336,0.326,0.181,0.114,south,12.6,Yes
2017/06/21,12:40,0.352,0.220,0.355,0.333,0.324,0.180,0.112,south,11.7,Yes
2017/06/21,12:50,0.348,0.221,0.358,0.335,0.324,0.180,0.112,south,9.9,Yes
2017/06/21,13:00,0.351,0.220,0.355,0.332,0.324,0.179,0.111,south,10.3,No
2017/06/21,13:10,0.347,0.219,0.355,0.333,0.321,0.177,0.110,south,9.7,No
2017/06/21,13:20,0.348,0.218,0.355,0.331,0.323,0.177,0.109,south,10.2,Yes
2017/06/21,13:30,0.349,0.217,0.354,0.332,0.320,0.177,0.109,south,11.6,Yes
2017/06/21,13:40,0.345,0.218,0.355,0.332,0.323,0.177,0.110,south,11.2,Yes
2017/06/21,13:50,0.349,0.217,0.352,0.332,0.321,0.176,0.110,south,11.5,Yes
2017/06/21,14:00,0.345,0.217,0.354,0.332,0.320,0.177,0.110,south,10.0,Yes
2017/06/21,14:10,0.348,0.216,0.351,0.329,0.321,0.176,0.109,south,13.7,Yes
2017/06/21,14:20,0.345,0.218,0.353,0.331,0.319,0.176,0.109,south,15.5,Yes
2017/06/21,14:30,0.343,0.216,0.351,0.325,0.322,0.176,0.110,south,17.7,Yes
2017/06/21,14:40,0.345,0.217,0.350,0.327,0.317,0.175,0.109,south,14.0,Yes
2017/06/21,14:50,0.341,0.215,0.350,0.325,0.321,0.176,0.110,south,14.1,Yes
2017/06/21,15:00,0.345,0.218,0.347,0.326,0.318,0.175,0.111,south,12.1,Yes
2017/06/21,15:10,0.341,0.218,0.349,0.323,0.322,0.178,0.112,south,11.5,Yes
2017/06/21,15:20,0.345,0.219,0.349,0.327,0.321,0.177,0.113,south,11.8,Yes
2017/06/21,15:30,0.341,0.219,0.349,0.323,0.321,0.177,0.112,south,12.4,Yes
2017/06/21,15:40,0.343,0.219,0.347,0.324,0.321,0.177,0.113,south-southwest,14.6,Yes
2017/06/21,15:50,0.341,0.219,0.347,0.323,0.320,0.178,0.114,south-southwest,15.7,Yes
2017/06/21,16:00,0.343,0.222,0.347,0.323,0.322,0.180,0.115,south-southwest,12.6,Yes
2017/06/21,16:10,0.344,0.224,0.350,0.324,0.324,0.181,0.117,south,9.4,Yes
2017/06/21,16:20,0.346,0.226,0.349,0.327,0.328,0.184,0.119,south-southwest,13.5,Yes
2017/06/21,16:30,0.345,0.225,0.352,0.327,0.322,0.184,0.120,south-southwest,5.9,Yes
2017/06/21,16:40,0.346,0.227,0.350,0.327,0.327,0.184,0.119,south-southwest,10.4,Yes
2017/06/21,16:50,0.345,0.224,0.351,0.326,0.324,0.182,0.118,southwest,9.2,Yes
2017/06/21,17:00,0.341,0.225,0.345,0.324,0.323,0.181,0.117,south-southeast,3.4,Yes
2017/06/21,17:10,0.342,0.223,0.343,0.320,0.318,0.180,0.116,south,9.0,Yes
2017/06/21,17:20,0.335,0.221,0.335,0.315,0.319,0.178,0.115,south-southeast,12.1,Yes
2017/06/21,17:30,0.337,0.220,0.336,0.317,0.317,0.177,0.113,south-southwest,11.0,Yes
2017/06/21,17:40,0.333,0.219,0.334,0.317,0.317,0.176,0.114,south,12.2,Yes
2017/06/21,17:50,0.334,0.217,0.338,0.319,0.316,0.174,0.112,south,10.9,Yes
2017/06/21,18:00,0.332,0.218,0.334,0.316,0.314,0.172,0.111,south-southwest,11.3,Yes
2017/06/21,18:10,0.333,0.216,0.338,0.321,0.317,0.172,0.111,south-southwest,9.3,Yes
2017/06/21,18:20,0.334,0.215,0.338,0.319,0.317,0.171,0.110,south-southwest,11.5,Yes
2017/06/21,18:30,0.332,0.214,0.337,0.322,0.317,0.170,0.109,south-southwest,12.9,Yes
2017/06/21,18:40,0.334,0.212,0.338,0.317,0.314,0.169,0.109,south-southwest,12.9,Yes
2017/06/21,18:50,0.330,0.213,0.335,0.318,0.316,0.167,0.108,south-southwest,12.4,Yes
2017/06/21,19:00,0.332,0.211,0.339,0.317,0.315,0.167,0.107,south-southwest,13.0,Yes
2017/06/21,19:10,0.332,0.213,0.335,0.317,0.315,0.168,0.107,south-southwest,15.1,Yes
2017/06/21,19:20,0.328,0.210,0.340,0.318,0.317,0.166,0.106,south,13.2,Yes
2017/06/21,19:30,0.333,0.211,0.337,0.315,0.312,0.167,0.106,south,13.5,Yes
2017/06/21,19:40,0.329,0.210,0.337,0.318,0.316,0.165,0.106,south-southwest,15.7,Yes
2017/06/21,19:50,0.331,0.210,0.339,0.318,0.314,0.166,0.105,south,15.2,Yes
2017/06/21,20:00,0.333,0.212,0.337,0.317,0.316,0.168,0.106,south-southwest,14.7,Yes
2017/06/21,20:10,0.328,0.210,0.340,0.319,0.317,0.166,0.106,south-southwest,14.5,Yes
2017/06/21,20:20,0.334,0.211,0.337,0.317,0.314,0.167,0.107,south-southwest,14.1,Yes
2017/06/21,20:30,0.332,0.210,0.342,0.322,0.316,0.167,0.104,south-southwest,13.1,Yes
2017/06/21,20:40,0.333,0.211,0.339,0.321,0.314,0.166,0.106,south-southwest,14.0,No
2017/06/21,20:50,0.335,0.210,0.339,0.320,0.314,0.168,0.105,south-southwest,12.4,No
2017/06/21,21:00,0.330,0.210,0.345,0.323,0.318,0.166,0.105,south-southwest,12.1,No
2017/06/21,21:10,0.336,0.211,0.340,0.320,0.314,0.168,0.106,south-southwest,10.4,No
2017/06/21,21:20,0.333,0.209,0.344,0.324,0.316,0.167,0.104,south-southwest,10.3,No
2017/06/21,21:30,0.333,0.211,0.342,0.322,0.316,0.166,0.104,southwest,7.3,No
2017/06/21,21:40,0.335,0.211,0.343,0.322,0.313,0.167,0.105,southwest,4.7,No
2017/06/21,21:50,0.333,0.210,0.345,0.324,0.318,0.168,0.105,west,3.6,No
2017/06/21,22:00,0.335,0.210,0.343,0.320,0.314,0.167,0.105,west-southwest,5.6,No
2017/06/21,22:10,0.336,0.209,0.345,0.324,0.315,0.168,0.104,west-southwest,5.9,No
2017/06/21,22:20,0.334,0.211,0.344,0.324,0.318,0.166,0.105,west-southwest,7.4,No
2017/06/21,22:30,0.337,0.210,0.344,0.320,0.315,0.168,0.104,west-northwest,9.3,No
2017/06/21,22:40,0.335,0.210,0.347,0.325,0.318,0.169,0.105,west,9.0,No
2017/06/21,22:50,0.335,0.212,0.343,0.323,0.317,0.168,0.104,west-northwest,6.7,No
2017/06/21,23:00,0.337,0.211,0.347,0.324,0.317,0.169,0.105,west-northwest,6.8,No
2017/06/21,23:10,0.336,0.213,0.348,0.325,0.318,0.168,0.106,west,3.4,No
2017/06/21,23:20,0.339,0.211,0.347,0.324,0.314,0.169,0.105,southwest,1.1,No
2017/06/21,23:30,0.336,0.212,0.349,0.327,0.319,0.170,0.105,east-southeast,2.8,No
2017/06/21,23:40,0.338,0.211,0.346,0.323,0.316,0.169,0.106,southeast,2.9,No
2017/06/21,23:50,0.337,0.212,0.350,0.327,0.315,0.170,0.105,east-southeast,1.6,No
